Theta_e
321 320 319 318 319 320 319 319 321 322 321 321 322 321 322 323 320 321 325 326 326 327 325 323 322 321 319 319 319 319 320 320 319 319 318 316 315 314 315 317 318 319 320 320 321 323 324 324 325 325 325 325 326 325 325 326 326 327 328 327 327 325 324 325 325 325 324 325 327 326 325 325 325 324 324 324 323 322 322 322 320 319 321 320 319 317 316
322 321 319 319 320 321 322 321 322 324 323 324 325 325 325 324 323 324 326 325 324 322 321 320 319 318 317 317 316 316 316 316 317 317 316 314 313 313 313 314 314 316 318 318 318 320 323 323 324 324 324 324 325 325 325 325 325 325 326 326 327 326 325 325 326 326 325 323 325 327 325 325 324 323 323 323 322 321 321 321 320 319 319 319 319 318 317
321 321 320 320 321 322 323 323 323 324 325 325 326 325 325 325 326 326 325 323 320 317 317 317 317 316 315 314 313 313 313 313 314 314 313 311 311 310 311 311 312 314 318 318 318 320 321 320 321 322 322 323 324 324 325 325 325 325 325 325 326 326 326 325 325 326 325 324 325 325 324 324 323 322 321 320 321 321 321 321 320 320 319 319 319 319 318
320 320 320 322 322 322 322 321 320 322 323 324 323 323 324 324 325 325 324 323 320 315 314 315 314 314 313 311 311 310 310 310 311 311 310 309 308 308 308 309 310 313 317 318 318 319 319 319 319 320 320 321 323 323 323 324 324 325 325 325 326 326 325 326 325 325 325 325 324 323 323 323 323 322 321 320 320 321 321 321 320 320 319 319 319 319 318
319 320 321 321 321 321 321 317 316 317 320 321 321 321 322 323 323 323 323 321 317 314 313 313 312 311 310 310 309 309 308 308 309 308 308 307 307 306 306 307 308 311 314 316 317 318 318 318 318 320 320 319 320 321 321 322 323 324 324 325 324 324 323 324 324 323 322 323 322 322 323 324 322 321 321 320 321 322 321 321 320 320 320 320 320 319 319
318 320 319 318 319 320 317 313 312 314 316 319 320 320 319 320 320 320 320 318 315 314 313 311 309 309 308 308 307 307 307 307 307 307 306 306 305 305 305 305 306 309 311 314 316 317 317 316 316 319 321 320 319 320 320 321 321 322 322 323 323 322 322 323 323 322 321 320 319 319 321 323 321 319 320 320 320 320 320 319 319 319 320 321 320 320 320
317 317 317 319 320 317 313 310 309 311 312 315 317 317 315 316 319 318 317 315 313 313 311 309 308 307 306 306 306 306 306 306 305 305 305 304 304 305 305 305 305 306 309 313 315 315 315 315 314 315 318 320 320 320 320 320 320 320 321 322 322 323 323 323 322 322 322 321 320 319 320 322 320 319 319 320 319 318 317 318 318 316 315 317 319 320 320
316 317 318 319 316 312 311 310 308 309 311 312 315 316 314 313 316 317 314 312 311 310 309 307 306 306 305 305 304 304 305 304 304 304 304 303 303 303 304 304 304 305 307 311 312 312 313 314 313 311 313 317 318 319 319 318 318 319 321 321 321 321 321 321 322 322 322 322 322 321 321 321 320 319 319 319 318 316 315 317 318 316 313 313 314 314 316
316 316 316 315 313 312 311 309 307 307 308 309 311 314 313 312 314 314 311 309 309 308 308 307 306 306 306 304 303 303 303 304 303 303 303 302 302 302 303 303 303 305 307 308 310 311 313 313 312 310 310 313 317 317 315 313 313 317 320 320 320 319 318 319 320 321 322 322 322 322 321 321 320 319 318 317 316 316 315 317 317 315 314 313 311 309 310
314 315 315 314 315 314 311 308 307 307 307 307 308 311 313 311 312 313 310 309 308 308 308 307 307 308 307 304 303 302 302 303 302 302 302 302 302 302 303 303 304 305 307 307 308 311 312 311 310 309 309 311 316 317 314 311 312 316 317 316 316 316 315 316 318 318 319 320 321 321 321 321 320 319 318 316 315 315 315 316 317 314 313 313 314 314 313
314 315 315 315 315 313 309 307 307 306 307 307 308 313 314 311 310 311 310 309 308 308 308 308 309 309 307 304 302 301 301 302 302 302 303 304 304 304 304 304 304 305 305 306 307 309 309 307 308 309 309 310 314 315 314 313 312 312 310 309 310 311 312 315 317 317 317 318 319 319 319 320 319 319 319 319 317 316 315 316 318 317 315 315 316 317 318
314 315 314 313 312 310 307 307 307 307 306 307 311 317 315 310 309 310 308 308 308 308 308 307 306 307 306 303 301 301 300 300 300 301 302 302 303 304 304 305 305 305 305 306 306 306 304 302 304 307 309 311 313 312 312 311 311 309 307 307 308 309 311 312 314 314 314 314 316 317 317 318 318 318 319 319 319 319 318 318 318 319 318 318 317 317 318
313 313 313 311 309 307 306 306 307 307 307 309 313 314 311 308 308 308 307 308 308 307 307 305 302 301 302 301 300 300 299 299 299 299 300 300 300 301 301 303 304 306 306 306 306 305 303 302 302 304 306 309 310 310 311 312 310 308 306 306 307 308 310 310 311 313 313 313 313 313 313 314 315 316 317 317 317 318 319 319 319 319 319 318 318 318 318
312 313 312 311 310 306 305 307 307 307 309 311 310 307 306 308 308 308 307 307 306 304 303 301 300 299 299 299 298 298 298 298 298 299 299 299 299 299 299 299 301 303 304 305 305 305 305 304 303 303 304 305 306 307 309 310 308 307 306 306 306 307 308 309 311 311 312 311 311 311 311 312 312 313 313 314 315 316 316 317 317 317 317 318 318 318 318
312 312 312 312 310 306 304 306 306 306 307 307 305 304 307 308 307 307 306 304 303 302 300 299 299 298 298 297 297 297 297 297 298 298 298 298 299 299 299 298 298 299 299 300 302 303 304 304 304 304 303 304 304 305 306 306 305 305 306 306 306 307 308 308 309 309 309 310 310 310 310 310 310 311 311 311 312 313 314 314 314 315 315 315 316 316 316
310 310 308 308 307 304 303 305 305 304 304 304 304 304 306 306 306 307 305 303 301 300 299 299 299 298 298 298 298 298 298 298 298 298 298 298 298 298 299 299 298 298 297 297 297 298 299 301 303 303 303 303 304 304 305 305 305 306 306 307 307 307 307 307 308 308 308 309 309 309 310 310 310 310 309 309 310 310 311 312 312 312 312 313 313 313 313
306 306 305 304 304 303 303 303 303 303 303 303 303 303 304 305 306 305 304 302 301 300 300 300 299 299 299 299 299 299 299 298 298 298 298 298 298 298 298 298 298 298 299 298 298 297 296 296 298 299 299 300 301 302 302 303 304 304 305 305 305 304 303 304 304 305 306 306 306 306 306 306 306 306 306 307 307 307 308 308 309 309 309 309 311 311 311
304 304 304 304 304 303 302 302 302 302 301 301 302 302 302 304 304 304 303 302 302 301 301 300 300 300 300 300 300 300 299 299 299 299 299 299 298 298 298 298 298 298 299 299 299 299 298 298 297 296 296 296 297 298 298 299 300 301 300 300 301 300 300 300 300 300 301 301 301 301 301 301 301 301 302 303 303 304 306 306 306 306 306 306 307 308 309
304 304 303 303 303 303 302 302 301 301 301 301 301 301 301 302 302 302 302 301 301 301 301 300 300 300 300 300 300 300 299 299 299 299 298 298 298 297 297 297 298 299 299 299 300 300 300 300 299 298 297 296 296 295 296 296 297 297 297 297 297 297 297 297 297 297 297 297 298 298 298 298 299 299 301 302 302 301 302 303 304 305 305 305 306 306 306
303 303 303 303 303 302 303 302 302 301 300 300 300 300 300 300 301 301 300 301 301 301 300 300 300 300 299 300 299 299 299 299 298 298 298 298 297 297 296 296 297 299 299 299 300 300 300 300 300 299 299 298 297 296 296 296 296 296 296 296 296 296 297 296 296 296 297 297 297 297 297 297 296 297 299 300 299 298 298 298 300 301 304 305 305 304 305
303 303 303 303 303 302 302 302 302 301 301 300 300 300 300 300 300 300 300 300 300 300 300 300 299 299 299 299 299 299 298 298 298 298 298 297 297 297 297 297 298 298 299 299 299 299 299 299 299 299 299 298 298 297 297 296 296 296 296 296 296 296 296 297 297 298 299 298 299 300 300 299 297 296 297 297 297 297 296 297 296 297 300 302 300 299 303
304 304 304 304 303 302 301 301 301 301 301 301 300 300 300 300 300 300 300 300 299 299 299 299 298 298 298 298 298 298 298 298 298 298 298 298 298 298 297 297 298 298 299 299 299 298 298 298 299 299 298 298 298 297 297 297 297 297 297 298 297 297 296 296 298 299 300 300 300 301 302 301 299 297 296 297 297 296 296 296 296 296 297 298 296 296 300
304 304 304 304 304 304 303 302 301 301 301 301 301 300 300 300 300 300 300 300 300 300 300 299 299 299 298 298 298 298 297 297 298 298 298 298 297 297 297 297 298 298 298 298 298 298 298 298 298 298 298 297 297 297 297 297 297 298 300 300 299 298 297 296 296 299 300 300 300 300 301 302 302 300 299 299 298 297 296 296 297 296 296 296 296 296 297
304 304 304 304 304 304 304 303 301 301 300 300 301 301 300 300 301 300 300 300 300 300 300 300 299 299 298 298 298 297 297 297 297 297 297 297 297 297 296 296 297 298 298 298 298 298 298 298 298 298 298 297 297 297 297 298 298 298 299 300 301 300 300 298 298 299 300 300 301 301 301 302 302 302 302 302 301 300 299 298 298 298 297 296 296 296 296
303 303 303 303 303 303 303 303 302 301 300 300 300 300 300 300 300 300 300 300 300 300 300 300 299 299 298 298 298 297 297 297 296 296 297 297 297 297 296 296 296 297 298 298 298 298 298 298 298 298 298 297 297 297 297 298 298 298 298 298 298 298 300 300 300 300 301 301 301 301 302 301 302 302 302 302 302 302 301 300 300 300 299 298 297 296 296
302 302 302 302 302 301 301 301 301 301 300 300 300 299 299 299 299 299 299 299 299 299 299 298 298 298 298 297 297 297 297 296 295 296 297 297 297 296 296 296 296 296 298 298 298 297 297 297 297 298 297 297 297 297 297 297 298 298 297 297 296 296 298 300 301 301 301 301 301 301 301 301 301 301 301 301 302 302 302 302 301 301 301 300 298 297 296
302 302 302 302 301 301 300 301 301 300 300 300 300 300 300 299 299 299 299 298 299 298 298 298 297 297 297 297 297 297 297 296 296 296 296 296 296 295 295 295 295 296 297 298 297 297 297 297 297 297 297 297 297 297 297 297 298 298 298 298 298 297 297 299 300 300 300 301 301 301 301 301 301 301 301 301 301 301 301 301 301 301 301 300 299 299 298
302 301 301 301 301 300 300 300 300 300 300 300 299 299 299 299 299 299 299 299 298 298 298 298 297 297 297 297 297 297 297 297 297 297 296 296 295 295 295 294 294 295 297 298 297 297 297 297 297 297 297 297 296 296 297 297 298 298 298 299 299 299 299 299 299 300 300 299 299 298 299 300 300 300 300 300 300 301 300 300 300 300 301 300 300 300 299
301 301 301 300 300 300 300 300 300 300 299 299 299 299 300 299 299 299 299 299 299 299 298 298 298 298 298 297 297 297 297 297 297 296 296 296 295 295 295 294 294 295 297 297 297 297 297 297 297 297 297 296 296 296 297 297 297 298 298 298 299 299 298 298 299 299 299 299 297 297 298 299 300 300 300 300 300 300 300 299 299 300 300 300 299 300 299
301 301 300 300 300 300 300 300 300 300 300 299 299 299 299 299 299 299 299 299 299 299 298 298 298 298 298 297 297 297 297 296 296 295 295 296 296 295 294 294 295 296 298 297 297 297 297 297 297 297 296 296 296 296 297 297 297 297 298 298 298 297 296 296 297 299 299 298 298 297 298 299 299 299 299 299 299 299 299 298 298 299 299 299 299 298 298
301 300 300 300 300 300 300 300 300 300 300 300 300 299 299 299 299 299 299 299 299 299 298 298 298 298 298 298 297 296 296 296 296 295 295 296 296 295 295 295 294 295 296 297 297 297 297 296 297 297 296 296 296 296 297 297 297 297 298 298 297 297 295 295 296 298 298 298 298 298 298 298 298 298 298 298 298 298 298 298 298 298 298 298 298 297 296
301 301 300 300 300 300 300 300 300 300 300 300 300 300 299 299 299 299 299 299 299 299 298 298 298 298 298 297 297 296 296 296 296 295 295 296 295 295 296 295 294 294 296 296 296 296 296 296 296 296 296 296 296 296 296 297 297 297 297 297 297 297 296 296 296 297 297 297 298 297 297 298 298 297 297 297 298 298 298 298 297 297 297 298 297 297 296
301 301 300 300 300 300 300 300 300 300 300 299 299 299 299 299 299 299 299 299 299 298 298 298 298 298 297 297 297 296 296 296 296 295 295 295 294 294 295 295 294 294 295 296 296 296 296 296 296 296 296 296 296 296 296 297 297 297 297 297 297 297 296 296 297 297 297 297 297 297 297 297 297 297 297 297 297 297 297 296 297 296 296 297 297 296 295
301 301 300 300 300 300 300 300 300 300 299 299 299 299 299 299 299 299 299 299 299 298 298 298 298 298 297 297 296 296 296 295 295 294 294 293 292 292 293 294 293 292 293 295 296 296 296 296 296 296 296 296 296 296 296 296 297 297 297 297 297 297 297 297 297 297 297 297 297 297 297 296 296 296 296 296 296 296 295 296 296 296 296 296 296 296 295
300 300 300 300 300 300 300 300 299 299 299 299 299 299 299 299 299 299 298 298 298 298 298 298 297 297 297 296 296 296 295 294 294 293 293 292 292 292 292 293 293 293 293 295 296 296 296 296 296 296 296 296 296 296 296 296 296 296 296 296 297 297 297 297 297 297 297 297 297 297 296 295 295 295 295 296 296 296 295 295 295 295 295 295 295 295 295
300 300 300 300 299 299 299 299 299 299 299 299 299 299 299 299 299 299 298 298 298 298 297 297 297 296 296 296 296 295 295 294 293 292 292 292 292 292 291 292 293 294 295 296 296 296 296 296 296 295 295 296 296 296 296 295 295 296 296 296 296 297 297 297 297 297 297 296 296 295 294 294 294 294 295 295 295 295 295 295 295 295 295 295 295 295 295
300 300 300 299 299 299 299 299 299 299 299 299 299 299 299 299 299 299 298 298 298 297 297 297 297 296 296 296 296 295 295 295 294 292 292 291 292 292 291 292 293 295 296 297 296 296 296 297 296 295 295 296 296 296 295 294 295 296 296 296 296 297 297 297 297 297 297 296 296 295 294 294 294 295 295 295 295 295 295 295 295 295 295 295 295 295 295
300 300 299 299 299 299 299 299 299 299 299 299 299 299 299 299 298 298 298 297 297 297 297 297 297 296 296 296 296 295 296 296 294 292 291 291 291 291 291 292 293 295 296 296 295 294 295 296 295 294 295 296 296 296 295 294 295 296 296 296 296 297 297 297 297 297 297 297 296 296 296 296 295 295 295 294 294 294 294 294 294 294 295 295 295 295 295
299 299 299 299 299 299 299 299 299 299 299 299 299 299 299 298 298 298 298 298 297 297 297 297 297 296 296 296 296 296 296 296 294 291 290 291 291 291 291 292 293 293 293 292 292 294 295 296 295 295 295 296 296 296 295 294 295 296 296 296 296 296 296 296 297 297 296 296 296 296 296 295 295 295 294 294 294 293 293 293 294 294 294 295 294 294 294
299 299 299 299 299 299 299 299 299 299 298 299 299 299 298 298 298 298 298 298 297 296 296 297 296 296 296 296 296 296 296 296 294 292 291 290 291 291 291 292 293 292 290 290 291 294 295 295 295 296 296 296 296 296 295 294 295 296 296 295 296 296 296 296 297 297 296 296 296 296 296 295 295 294 294 294 294 294 294 294 294 294 294 294 294 294 294
299 299 299 299 299 299 299 299 299 299 299 298 299 298 298 298 298 298 298 298 297 296 296 297 297 296 296 296 296 296 296 296 295 294 292 292 292 293 294 294 294 292 290 289 290 291 292 293 295 296 296 296 296 296 295 295 295 296 296 296 296 296 296 296 296 296 297 296 296 296 296 295 295 295 294 294 294 294 294 294 294 294 294 294 294 294 294
299 299 299 299 299 299 299 299 299 299 299 298 299 298 298 298 298 298 298 298 297 297 297 297 297 296 295 295 296 296 296 296 296 295 294 293 293 294 294 295 295 293 291 290 289 289 291 294 295 296 296 297 297 296 295 295 296 296 296 296 296 296 296 296 296 296 296 296 296 296 296 295 295 295 294 294 294 294 294 294 294 294 294 294 294 294 294
299 299 299 299 299 299 299 299 299 299 299 299 299 299 298 298 298 298 298 298 298 297 297 297 297 296 296 295 296 296 296 296 296 296 295 295 294 294 293 294 295 294 291 289 289 292 294 295 296 296 296 296 296 296 295 296 296 296 296 296 295 295 295 296 296 296 296 296 296 296 296 295 295 295 294 294 294 294 294 294 294 294 294 294 294 293 293
299 299 299 299 299 299 299 299 299 299 299 299 299 299 299 298 298 298 298 298 298 298 297 297 297 297 297 297 296 296 297 297 296 296 296 296 295 295 294 294 293 293 291 289 290 293 295 295 295 296 296 295 295 296 295 296 296 296 296 296 296 295 295 295 295 295 295 296 296 296 296 295 295 295 295 294 294 294 294 294 294 294 294 294 293 293 293
299 299 299 299 299 299 299 299 299 299 299 299 299 299 299 298 298 298 298 298 298 298 298 297 298 298 297 297 297 297 297 297 297 296 296 296 296 296 295 294 293 294 293 292 292 293 294 294 294 294 294 293 293 294 295 296 296 296 296 296 296 295 295 295 295 295 295 295 295 295 295 295 295 295 295 294 294 294 293 294 294 294 294 294 294 293 293
299 299 299 299 299 299 299 299 299 299 299 299 299 299 299 299 298 298 298 298 298 298 298 298 298 298 298 298 298 298 297 297 297 297 296 296 296 295 295 294 294 295 295 294 293 293 293 292 291 290 290 290 290 291 293 295 296 296 296 296 296 295 295 295 295 294 294 294 295 295 295 295 295 295 295 294 294 294 293 293 293 294 294 293 293 293 293
299 299 299 299 299 299 299 299 299 299 299 299 299 299 299 299 299 299 299 299 299 299 299 299 299 299 299 298 298 298 298 298 298 297 297 297 296 296 295 295 295 295 295 295 294 294 293 292 290 289 288 288 288 290 293 295 296 296 296 296 296 296 295 295 294 294 294 294 294 294 294 295 295 295 294 294 294 294 293 293 293 293 293 293 293 292 292
299 299 299 299 299 299 299 299 299 299 299 299 299 299 299 299 299 299 299 299 299 299 299 299 299 299 299 299 299 298 298 298 298 298 297 297 297 297 296 296 296 295 295 295 294 294 294 294 293 292 290 288 287 290 293 295 296 296 296 296 296 296 295 295 294 294 294 294 294 294 294 294 294 294 294 294 294 294 294 293 293 294 294 293 293 292 292
299 299 299 299 299 299 299 299 299 299 299 299 299 299 299 299 299 299 299 299 299 299 299 299 299 299 299 299 298 298 298 298 297 297 297 297 297 297 297 296 296 296 295 295 295 295 295 294 294 294 293 290 288 290 294 295 296 296 296 296 296 296 295 295 294 294 294 294 294 293 293 294 294 294 294 294 294 294 294 294 293 293 293 293 293 293 292
299 299 299 299 299 299 299 299 299 299 299 299 299 299 299 299 299 299 299 299 299 299 299 299 299 299 299 299 298 298 298 298 298 298 298 297 298 298 297 297 296 296 296 295 295 295 295 294 294 294 294 292 290 292 294 295 295 295 296 296 296 296 295 295 294 294 294 294 294 293 293 293 293 293 293 293 293 293 293 293 293 293 292 292 292 292 292
299 299 299 299 299 299 299 299 299 299 299 299 299 298 299 299 299 298 298 299 299 299 299 299 299 299 299 299 298 298 298 298 298 298 297 297 297 297 297 296 296 296 296 296 295 295 295 294 294 294 294 293 292 293 294 295 295 295 295 295 295 295 295 295 294 294 294 293 293 293 293 293 293 293 293 293 293 293 293 293 293 292 291 290 290 290 291
299 299 299 299 298 299 299 298 298 298 299 298 299 299 299 299 299 298 298 298 298 298 298 298 299 299 299 298 298 298 298 298 298 297 297 297 297 297 297 296 296 296 296 295 295 295 295 295 294 294 293 293 294 294 295 294 294 294 294 295 295 295 295 295 294 294 293 293 293 293 293 293 293 293 293 293 293 293 293 292 292 291 291 290 290 289 290
Wind_Speed
10 6 5 4 10 11 5 4 8 10 8 9 11 7 3 2 2 3 8 9 7 7 8 9 8 7 7 8 9 10 11 12 12 12 12 12 11 10 9 8 7 7 8 10 10 11 11 9 7 5 3 3 2 2 3 3 4 6 10 16 19 20 20 18 19 20 21 21 21 19 18 16 15 14 13 13 12 11 11 11 11 11 11 12 11 10 11
10 7 5 3 2 7 5 6 7 5 3 4 3 1 3 5 6 8 13 15 11 7 7 9 10 10 10 10 10 12 12 11 11 11 12 12 11 11 10 10 9 8 8 8 9 10 11 11 10 8 8 8 8 7 6 5 5 6 10 16 19 19 19 18 18 19 21 22 21 19 18 17 16 15 14 13 12 11 11 10 11 11 11 12 12 11 12
7 6 4 4 6 7 3 6 3 3 3 2 4 5 5 7 9 11 14 13 9 6 7 10 11 11 11 11 11 12 11 11 11 11 12 12 11 11 11 11 10 8 8 8 9 10 12 11 10 10 10 11 12 12 10 8 9 9 9 13 16 17 19 20 19 19 21 23 20 19 19 19 18 17 16 14 12 11 11 10 10 10 11 12 12 11 12
5 4 4 2 2 3 6 11 11 7 4 3 4 5 5 4 7 10 10 7 5 5 8 10 11 11 12 12 12 11 12 11 11 11 12 12 12 11 10 10 9 8 8 10 11 12 12 12 11 10 10 10 12 13 13 11 11 13 13 13 14 16 19 20 19 18 18 19 19 19 21 21 21 20 19 16 14 12 12 11 9 9 11 12 12 11 12
6 4 2 3 4 1 3 6 10 10 8 5 3 5 8 6 4 5 4 5 8 10 9 9 10 11 12 12 11 11 11 12 12 12 12 12 12 12 11 11 10 9 9 11 13 14 13 13 13 11 10 10 12 12 14 14 11 12 15 15 14 15 17 18 16 15 14 14 14 15 18 21 21 20 19 19 18 16 16 14 12 10 11 12 12 11 11
5 3 4 2 2 3 0 4 8 9 10 9 4 7 11 10 5 5 6 10 12 11 10 10 10 12 13 14 14 13 12 12 13 13 13 12 13 12 12 12 12 11 12 14 16 18 19 19 16 14 12 12 12 11 13 16 15 13 15 15 14 14 14 14 12 11 12 13 13 13 16 21 22 20 19 19 17 15 14 14 13 14 14 13 12 11 11
1 4 5 4 5 2 1 4 9 10 9 9 6 8 11 12 7 11 13 12 12 13 14 15 16 18 19 19 18 16 15 15 16 17 16 15 17 17 15 15 16 16 16 18 19 20 22 22 19 17 16 14 14 13 13 16 19 18 17 16 15 15 15 13 13 12 11 11 12 13 14 18 22 22 21 19 17 15 14 12 11 13 13 13 12 13 13
0 2 4 4 2 2 3 4 9 10 8 9 6 7 10 13 7 11 13 12 13 16 18 18 18 20 21 23 22 19 16 16 17 19 18 19 22 24 21 19 20 19 18 19 20 20 21 22 21 20 20 19 19 20 20 19 19 19 19 18 18 17 15 14 14 15 15 12 11 11 10 13 16 18 19 20 18 16 15 12 11 11 11 11 11 11 10
2 1 3 3 4 3 4 4 6 7 6 8 7 2 6 10 7 9 12 12 13 15 16 18 18 18 19 19 18 17 16 14 16 18 19 20 24 26 24 23 22 20 19 20 21 23 24 25 25 23 22 23 24 25 25 24 22 22 22 21 20 18 16 14 13 14 16 14 13 13 13 12 12 13 16 19 18 17 17 15 14 12 11 11 11 11 11
3 3 5 4 4 3 5 5 6 7 6 7 8 3 2 6 7 8 11 11 13 15 16 16 16 13 12 10 9 13 13 13 16 19 21 22 23 24 24 23 22 21 20 19 20 23 26 26 26 24 22 22 24 24 25 25 24 23 23 22 20 19 18 16 14 13 13 13 13 13 13 13 13 13 14 15 15 16 17 15 14 15 15 14 13 14 15
5 4 5 3 3 3 6 8 8 9 8 7 7 3 2 4 6 8 11 12 14 15 14 12 8 6 6 5 5 8 9 10 13 16 18 19 19 20 20 20 21 21 19 18 18 20 22 23 23 23 22 22 22 22 24 25 25 24 22 20 19 18 17 16 15 14 13 13 12 12 12 11 10 11 12 12 14 15 14 14 16 17 17 17 16 16 16
4 3 2 4 5 4 8 11 10 9 7 6 5 2 3 4 5 9 12 13 14 12 10 8 6 4 6 8 6 8 10 12 13 14 18 19 17 17 16 15 16 16 16 16 17 18 19 20 20 20 21 22 22 23 24 26 26 25 21 18 18 18 19 18 16 16 16 15 13 12 12 12 10 9 8 8 9 9 9 9 12 12 12 14 16 17 17
3 5 5 5 4 4 11 14 11 8 5 3 0 1 2 4 8 12 12 12 11 9 10 12 11 11 14 14 11 11 14 15 14 14 16 16 16 17 16 14 13 12 12 14 16 16 15 15 16 18 18 19 21 21 22 23 25 24 20 18 17 18 18 18 16 16 16 16 16 15 13 13 13 12 10 8 7 8 7 5 4 4 5 6 8 8 8
2 4 6 6 5 6 16 17 10 8 5 1 2 5 5 3 11 12 11 12 12 14 18 20 20 21 23 23 20 19 18 18 16 15 14 14 14 15 16 16 14 13 12 13 13 14 12 11 12 14 15 16 18 17 18 20 21 20 19 18 16 16 16 17 16 16 16 16 17 17 15 14 14 13 12 11 10 9 8 7 7 7 7 6 5 5 5
4 3 6 5 3 8 19 17 7 8 7 1 2 6 3 9 13 12 12 13 16 21 24 24 24 26 25 25 26 25 22 20 18 16 15 14 13 13 14 14 14 13 13 12 11 11 11 9 9 10 10 11 13 14 15 16 16 15 14 14 13 12 12 12 13 13 12 12 13 13 13 13 12 12 12 11 10 9 8 7 7 6 7 6 5 5 6
4 4 6 4 3 8 16 12 6 7 8 4 2 6 10 12 12 14 15 16 19 25 27 26 25 25 23 22 22 22 20 18 17 15 15 14 14 14 13 13 12 12 12 13 12 11 10 8 7 8 9 8 9 9 10 10 10 10 9 9 8 8 8 8 8 8 8 7 7 7 8 8 8 8 8 8 7 7 7 6 5 5 5 4 4 3 3
7 7 6 6 7 9 11 12 10 9 9 9 11 15 16 14 13 16 19 19 21 24 25 25 23 21 19 18 18 17 16 14 14 13 13 14 14 13 13 12 11 11 11 11 11 10 10 9 7 6 6 6 6 7 6 6 5 5 5 5 5 5 5 5 4 4 4 4 4 4 4 4 4 4 4 4 4 4 4 4 3 3 3 3 3 2 2
11 13 12 10 11 12 12 13 13 13 13 12 14 19 21 19 18 19 20 21 21 20 21 22 20 18 17 16 15 15 14 13 12 12 12 12 12 12 12 11 11 10 9 10 10 11 11 11 9 7 6 5 5 4 4 4 4 3 3 3 3 3 3 3 3 3 3 3 3 3 3 3 3 3 3 2 3 4 5 4 3 3 3 2 2 2 1
8 9 11 13 14 15 14 14 15 16 17 15 15 19 22 25 25 24 21 20 19 18 18 19 19 18 17 16 15 14 13 12 11 11 10 10 11 11 11 11 10 9 9 9 10 10 10 10 10 10 9 8 6 4 4 4 3 3 4 4 4 4 4 4 4 4 3 3 4 4 3 3 3 4 4 4 2 3 3 3 3 4 4 3 3 2 2
10 10 13 17 21 21 19 17 16 16 17 18 18 19 22 25 27 25 23 21 20 18 17 17 17 17 15 14 13 12 11 10 9 9 9 9 10 10 10 10 10 9 9 9 9 10 10 10 10 10 10 10 9 6 5 5 5 6 6 6 6 5 5 5 5 6 5 6 6 6 4 4 3 3 3 3 2 2 3 4 4 4 4 3 1 2 3
11 11 14 16 18 20 22 22 20 19 19 20 20 20 22 25 25 24 23 21 20 19 17 15 15 14 13 12 11 10 9 9 8 8 8 8 9 9 9 9 9 9 9 9 9 9 9 9 10 9 10 10 10 8 7 6 6 7 7 7 6 5 5 6 7 7 7 7 8 8 6 5 5 5 3 1 2 2 1 1 3 4 5 4 5 3 2
7 7 10 11 11 12 16 20 21 20 21 22 22 21 22 23 22 21 21 20 19 18 15 14 13 12 11 10 9 9 8 7 7 7 7 7 8 8 8 8 9 9 9 8 9 8 8 9 9 9 9 8 9 8 7 6 6 7 7 7 6 4 4 4 6 7 7 6 7 7 6 6 7 7 6 5 5 5 5 3 2 2 3 4 4 2 2
9 11 13 14 14 14 15 17 18 18 19 21 21 21 20 20 19 18 18 18 17 15 13 11 10 10 9 8 7 7 7 6 6 7 7 7 7 7 7 8 8 8 8 8 8 8 7 7 8 8 8 8 8 7 7 6 6 7 7 7 6 5 4 3 5 6 7 6 7 7 7 6 6 6 6 7 8 8 7 6 5 4 3 3 3 1 1
15 16 17 16 17 16 15 16 17 18 18 18 19 18 18 17 16 15 14 14 13 12 10 9 8 7 6 5 5 5 5 5 5 5 6 7 8 7 7 7 8 7 7 7 7 7 6 6 6 7 7 7 7 7 8 7 6 6 6 5 5 6 6 6 6 7 8 7 8 8 7 7 6 4 5 8 10 11 12 12 11 11 10 8 6 5 3
17 18 18 17 18 18 17 16 17 17 17 17 18 17 17 16 14 13 12 11 10 9 9 8 7 6 5 4 4 4 4 5 4 3 4 7 8 7 7 7 7 7 6 6 5 5 5 6 6 6 6 7 6 6 7 7 7 6 5 4 4 5 6 7 7 7 8 8 8 8 8 7 7 6 5 5 7 9 12 14 15 14 15 14 11 8 7
18 17 17 16 17 17 16 16 16 15 14 15 16 15 14 14 13 12 11 10 9 8 8 7 6 5 4 3 3 3 3 4 4 4 5 6 6 6 7 7 6 6 5 4 4 4 5 5 6 5 6 7 7 6 6 6 7 7 6 6 5 4 8 9 7 6 7 7 7 7 7 7 7 7 6 6 6 5 7 9 11 12 14 15 14 12 10
15 14 14 15 15 15 14 15 15 14 13 13 13 12 11 10 10 10 10 9 8 7 6 6 6 5 4 3 2 1 3 3 4 5 5 6 6 6 7 6 5 6 5 4 5 6 6 5 5 4 5 6 6 6 5 5 6 7 7 7 7 5 6 9 7 6 7 7 5 5 6 6 6 6 6 6 6 6 5 5 5 6 9 12 13 15 14
13 12 12 13 14 14 14 13 13 13 12 11 11 10 10 9 8 8 8 7 7 6 6 5 4 4 3 2 1 0 2 2 2 4 5 5 5 6 6 5 5 5 5 5 5 5 5 4 4 4 5 5 5 5 5 5 6 6 6 6 7 6 6 7 7 8 8 6 3 4 6 6 6 6 6 6 6 6 6 5 4 4 5 6 9 13 14
13 13 13 13 14 13 12 12 11 11 10 9 9 8 8 7 7 7 6 6 5 5 5 4 3 2 2 1 1 1 2 2 3 4 5 5 5 6 6 5 5 4 4 4 4 4 4 4 4 4 5 5 6 5 5 5 5 5 5 5 5 3 3 4 6 7 6 5 4 6 9 8 5 4 5 6 6 6 6 6 5 5 5 4 5 8 10
12 12 12 12 11 11 10 10 9 8 7 7 7 6 5 5 5 5 5 4 3 3 3 2 1 1 1 0 1 2 2 2 3 3 3 4 5 6 6 5 4 3 3 4 4 4 3 3 3 4 4 4 5 5 4 4 4 4 5 4 2 2 3 4 8 7 4 4 5 7 8 6 4 3 5 6 6 6 6 6 6 6 5 5 5 6 6
11 10 10 10 9 9 8 8 7 6 5 5 4 4 4 4 3 3 3 2 2 2 2 1 0 1 1 0 1 1 1 2 3 3 3 3 4 6 6 5 4 3 2 3 3 3 2 2 2 3 3 2 3 4 3 3 3 3 3 3 4 8 8 4 7 7 4 3 4 4 4 4 3 4 5 5 5 5 5 5 6 6 5 5 5 5 4
10 9 8 7 7 6 6 6 5 5 4 3 3 3 3 3 3 2 2 2 1 1 1 1 1 1 2 1 1 1 1 3 3 3 3 3 5 6 6 5 3 2 2 2 2 2 1 1 2 2 2 2 3 3 2 2 3 2 2 2 3 7 8 5 6 5 4 4 3 3 4 4 4 4 4 5 5 5 5 5 5 5 5 5 5 5 5
8 8 7 6 5 5 5 4 4 4 3 3 3 3 2 2 2 2 1 1 1 1 1 1 1 2 2 1 1 1 2 3 3 2 2 4 6 7 8 7 4 2 1 1 2 2 1 1 2 2 1 1 2 2 2 2 2 2 2 2 2 3 5 5 7 6 3 2 3 4 4 4 4 4 4 5 5 5 5 5 5 5 5 5 5 8 9
6 7 7 5 4 5 4 3 3 3 3 2 2 2 2 2 2 1 1 1 1 2 2 1 1 2 2 2 1 2 2 3 4 4 4 6 8 9 9 9 6 2 2 2 2 2 2 2 2 1 1 1 1 1 1 1 1 1 2 1 2 2 2 3 4 4 3 2 4 6 5 4 3 4 4 5 5 4 5 5 5 5 5 5 5 8 10
5 7 7 5 5 5 4 4 3 3 2 2 2 2 2 2 1 1 1 1 1 1 1 0 1 2 2 1 2 3 3 4 5 6 6 7 7 7 8 9 7 5 4 3 2 3 3 3 3 3 2 1 1 1 1 1 1 1 1 1 2 2 1 1 2 3 3 2 3 3 2 2 2 4 4 4 4 4 4 5 5 5 6 6 6 7 8
6 6 6 5 5 5 4 4 4 3 3 3 2 2 2 2 2 1 2 1 1 1 1 1 1 1 1 2 2 4 5 5 5 6 6 6 5 6 7 7 7 7 7 4 3 3 3 5 6 5 2 1 2 3 4 2 0 1 1 1 2 1 1 2 2 2 2 2 1 1 2 4 4 5 5 4 3 3 3 4 5 5 6 6 7 7 8
6 6 5 5 4 4 4 4 4 3 3 3 3 2 2 2 1 1 2 1 1 2 2 2 1 0 1 2 3 3 4 3 4 6 7 5 4 5 5 5 7 10 9 5 6 6 4 6 8 6 2 1 2 4 7 6 1 1 1 1 2 1 1 1 1 1 1 1 1 2 5 7 5 4 4 3 2 2 2 3 4 5 5 6 7 7 7
5 5 5 4 4 3 3 3 2 2 3 3 3 2 2 2 2 2 2 2 2 2 2 1 1 1 1 1 3 3 2 2 5 7 6 5 4 4 5 5 6 7 4 5 8 7 4 7 8 4 2 2 3 5 8 6 2 4 1 1 2 2 2 2 2 1 2 2 1 0 2 2 1 2 2 2 1 1 2 2 3 4 5 5 6 6 6
5 4 4 4 3 3 3 2 1 2 2 2 2 2 1 1 2 2 1 2 2 2 1 1 1 1 1 2 4 3 3 4 6 7 4 3 3 5 5 4 3 4 5 6 6 5 4 6 5 3 3 3 3 4 6 2 6 6 1 1 3 3 2 3 2 2 2 2 3 3 3 1 2 2 2 1 0 1 3 5 4 4 4 4 4 4 5
5 4 4 3 3 3 2 2 1 1 1 0 1 1 1 1 1 2 1 2 3 2 1 0 1 2 3 3 4 2 1 4 7 7 4 2 2 4 5 4 3 5 8 7 5 3 4 4 4 4 3 3 2 2 4 2 5 5 1 1 3 3 3 3 3 3 3 3 4 4 3 1 1 2 1 0 0 1 3 4 3 2 2 3 3 3 3
5 4 3 3 3 3 2 2 2 2 1 1 1 1 1 1 1 2 2 2 3 3 2 2 3 3 3 4 4 3 2 3 4 5 4 3 3 5 5 4 3 6 9 7 5 5 4 2 4 5 4 3 3 3 2 2 2 2 0 1 2 3 3 3 3 4 4 3 3 3 3 2 2 2 2 1 0 1 1 2 1 2 2 2 2 1 2
5 4 4 4 4 3 3 3 3 3 3 3 3 3 3 3 2 3 3 4 4 3 3 4 4 5 5 4 3 3 3 3 3 3 3 3 4 5 5 2 2 6 9 9 7 5 3 1 3 5 4 4 4 3 1 1 0 1 1 2 2 2 3 3 3 4 4 4 4 4 4 3 3 3 3 2 2 1 1 1 1 1 1 1 1 1 0
4 4 4 4 4 4 4 4 4 4 4 4 5 5 5 5 4 4 5 5 5 5 5 5 5 5 4 4 4 4 4 3 3 4 4 4 3 3 3 3 2 7 10 10 6 3 2 2 3 5 5 5 5 3 2 2 2 2 2 2 2 3 3 4 4 5 4 4 5 5 4 4 4 4 3 2 2 3 2 2 1 0 0 1 1 1 1
4 4 4 4 3 4 4 4 4 5 5 5 5 6 6 6 6 6 6 7 7 7 7 7 7 6 5 5 5 5 4 4 4 4 4 4 3 3 1 2 3 5 7 7 3 2 3 4 6 8 8 6 6 5 3 3 3 4 4 3 3 3 3 4 4 5 5 5 5 6 5 5 5 4 4 4 4 3 3 3 2 2 1 1 1 1 2
4 4 4 4 4 4 4 4 4 5 5 5 5 6 6 7 8 8 8 8 9 9 9 9 9 8 7 7 7 6 5 6 5 4 4 5 2 3 2 1 3 4 7 8 3 2 4 6 9 12 12 11 9 8 6 4 4 5 5 4 4 4 4 4 5 5 5 5 5 5 6 6 5 5 5 5 4 4 4 4 4 3 2 2 2 2 2
4 4 4 4 4 4 4 4 5 5 5 5 6 6 7 7 8 8 9 9 10 10 10 10 10 9 9 8 8 8 7 7 7 5 5 4 3 2 1 1 2 3 5 7 5 1 5 7 8 10 12 11 11 10 8 6 5 6 6 6 6 5 5 5 6 6 6 6 6 5 6 6 6 5 6 6 5 5 6 6 5 4 3 4 6 7 7
5 4 4 4 4 4 4 5 5 5 6 6 7 7 7 8 8 8 9 9 9 10 10 10 10 10 10 9 9 9 8 8 7 6 5 5 5 5 5 5 5 5 5 5 4 3 4 6 7 6 7 8 8 8 7 7 7 7 7 6 6 6 6 6 7 7 7 8 8 7 7 7 6 5 6 7 6 5 6 6 5 4 5 7 9 8 8
6 5 4 4 4 4 5 5 6 6 7 7 7 7 7 8 8 8 9 9 9 9 9 10 10 10 10 10 10 10 9 8 7 6 6 5 5 5 6 7 6 6 7 7 6 6 6 6 7 7 6 5 5 6 7 7 8 8 7 7 7 6 7 7 7 7 7 7 8 8 6 6 6 6 7 7 6 6 7 6 5 5 6 7 7 7 6
6 5 4 4 4 4 4 4 5 6 6 7 7 7 7 8 8 8 8 8 8 8 9 9 9 9 9 9 9 9 9 9 8 7 6 5 5 5 6 7 8 9 8 7 7 7 7 6 6 7 7 5 4 4 5 7 8 8 8 8 8 7 6 7 8 8 8 7 7 7 7 7 6 7 7 7 7 7 7 7 7 7 9 8 6 7 8
6 5 6 6 5 4 4 4 5 5 5 6 7 7 7 7 8 8 7 7 8 8 8 8 8 7 8 8 8 8 8 8 8 8 8 7 7 8 7 7 9 10 9 7 7 9 10 9 7 6 6 6 4 1 4 7 8 8 9 9 8 7 7 9 11 12 12 10 8 7 7 8 7 8 8 9 8 8 8 9 9 11 12 11 9 9 9
7 6 6 6 5 5 5 5 5 6 6 6 7 7 7 7 8 7 6 7 7 7 8 7 7 7 7 7 7 7 7 7 7 8 8 8 7 8 8 8 10 12 12 9 8 9 11 10 9 7 6 6 4 2 5 7 7 8 9 9 8 8 9 10 10 10 11 11 10 9 9 9 9 9 10 11 11 11 11 11 11 12 13 12 11 11 10
7 7 6 6 6 6 6 6 6 7 7 7 7 7 7 8 8 7 7 7 8 8 8 8 7 6 6 6 6 6 6 6 7 7 6 6 7 7 7 8 8 9 10 8 7 8 9 10 10 9 8 6 4 4 6 7 8 8 9 9 8 8 9 9 9 9 9 10 11 11 10 10 10 10 11 11 12 12 12 12 12 12 12 12 12 11 11
Wind_Direction
263 261 250 301 325 301 251 214 235 217 203 228 234 227 245 295 267 154 135 135 132 127 125 122 117 108 97 85 75 71 75 81 84 83 78 71 63 53 48 51 58 70 78 65 61 79 92 91 89 87 84 89 121 129 111 129 138 136 154 163 167 176 184 184 181 185 188 184 179 177 173 169 166 166 163 157 158 163 165 166 169 171 175 177 174 172 173
264 257 232 137 330 281 219 178 217 217 183 224 233 110 64 67 82 110 126 120 102 85 91 93 92 93 94 89 76 68 68 72 77 81 79 72 63 57 52 46 44 61 81 73 68 88 95 87 84 86 88 91 93 94 94 100 117 136 158 165 172 181 184 182 184 186 187 188 186 182 179 172 165 165 165 161 159 160 163 167 169 172 177 178 176 175 175
247 242 231 159 192 220 162 97 84 81 87 61 56 67 73 80 95 112 117 109 95 84 88 93 97 94 88 80 71 68 67 69 75 77 75 71 65 59 54 48 45 62 90 92 92 104 104 90 82 81 82 89 95 100 101 100 113 129 145 156 163 176 184 181 179 181 185 187 189 189 185 178 169 167 168 166 159 155 161 168 169 171 176 178 179 178 177
251 231 213 151 155 170 95 61 36 23 26 45 63 72 63 82 127 135 129 123 125 121 106 100 100 92 82 74 69 68 66 66 73 74 70 69 66 60 57 52 51 68 94 101 100 105 108 104 98 89 79 79 90 104 112 113 121 129 131 139 149 162 173 171 169 179 185 185 188 188 183 179 176 172 168 163 160 159 160 162 165 170 175 177 179 178 178
253 225 177 64 38 50 100 49 18 3 360 6 66 75 45 46 126 156 150 129 128 133 127 112 99 85 78 73 67 67 67 65 67 68 68 68 64 61 62 57 57 74 96 101 100 103 101 97 101 107 102 90 86 96 108 111 118 129 126 126 134 144 154 157 161 177 184 183 190 190 184 182 180 177 174 168 166 169 164 158 157 163 171 174 175 177 180
232 165 102 102 206 217 160 21 3 354 353 359 45 71 36 29 69 99 102 117 128 133 125 110 99 89 82 77 70 67 67 66 65 64 65 67 65 67 71 67 66 78 95 104 106 105 100 92 91 101 109 107 102 104 114 117 115 115 115 117 121 124 131 138 147 160 165 174 191 201 199 191 181 182 189 182 171 170 168 162 162 168 172 170 166 172 180
228 137 131 178 213 215 80 29 4 351 344 356 42 77 39 21 64 99 98 109 117 113 107 104 101 95 88 79 71 65 63 65 68 67 66 68 72 74 75 75 77 84 96 107 109 105 101 95 87 85 90 98 104 107 118 123 118 115 117 124 129 129 130 133 134 136 137 152 178 194 203 199 188 188 194 188 179 177 175 169 170 175 178 174 169 175 179
138 180 172 173 159 84 80 49 13 359 347 354 21 80 46 19 44 103 101 100 101 104 108 109 107 102 90 75 63 59 63 67 71 72 71 73 78 78 76 76 80 85 94 104 108 105 103 102 96 88 88 96 101 102 103 104 103 107 114 120 123 124 126 126 128 135 137 139 152 159 165 179 186 189 190 186 182 181 182 184 182 179 181 182 179 184 188
196 161 109 126 147 104 58 36 13 3 353 348 346 34 52 24 33 98 108 110 109 111 115 117 120 113 91 72 53 48 57 68 75 80 80 79 81 81 79 77 77 83 92 100 105 108 106 104 99 92 91 99 104 101 96 89 87 95 103 105 106 105 104 102 106 119 132 138 142 141 140 150 165 172 178 182 181 181 185 190 188 185 190 190 185 194 210
222 162 130 144 166 121 48 22 5 357 340 326 320 309 65 40 42 94 118 120 117 121 124 128 134 119 86 69 46 39 51 68 79 82 81 79 81 82 81 80 78 80 85 89 99 109 109 105 101 96 93 98 105 104 98 92 92 95 95 93 93 92 90 93 93 93 102 114 120 123 130 146 160 165 174 185 190 193 198 199 194 196 204 208 205 208 213
238 206 175 144 117 82 32 8 356 350 337 321 311 277 123 53 52 101 122 123 123 129 129 127 135 129 103 98 69 51 58 68 72 76 76 75 77 77 75 75 74 75 79 82 89 100 100 99 104 108 106 105 107 107 103 99 96 92 84 77 79 82 86 93 97 90 89 96 101 104 111 122 139 157 170 182 191 198 207 210 206 204 207 212 219 226 223
220 194 157 93 85 58 12 353 346 349 342 320 298 214 111 58 79 112 119 124 126 127 121 95 60 64 102 108 97 93 94 82 71 73 75 73 71 70 69 69 71 73 79 82 83 82 77 80 93 107 111 112 113 111 108 105 99 92 83 75 81 90 92 89 89 88 87 89 91 94 99 99 98 107 125 148 164 166 173 192 199 195 193 198 209 221 226
135 119 108 90 93 42 357 344 343 350 330 294 9 35 6 57 104 115 113 115 112 102 100 94 79 81 96 103 102 97 93 86 75 71 71 69 66 66 65 66 72 77 79 78 79 77 68 67 79 89 98 105 108 109 111 109 105 102 99 93 93 99 100 98 98 101 102 101 98 96 97 99 98 97 94 90 92 102 107 115 131 132 138 159 178 194 206
344 122 117 106 104 35 354 341 346 1 338 226 55 332 310 106 114 109 96 92 95 93 94 98 100 103 104 106 105 99 92 86 78 71 69 69 66 62 59 58 61 68 72 72 76 81 74 62 65 75 86 95 99 104 110 109 107 109 111 107 103 103 104 106 106 106 106 106 104 102 100 100 100 100 102 101 95 91 92 90 85 82 83 88 95 101 105
345 78 89 92 100 17 356 346 355 19 10 23 316 328 8 108 112 104 90 92 106 109 104 102 106 107 106 107 107 103 97 89 80 72 70 69 67 63 59 57 55 58 63 64 66 72 72 63 59 63 72 85 92 99 104 104 104 108 110 110 109 107 105 105 104 102 100 99 99 100 102 105 105 103 105 107 105 101 93 85 82 82 83 85 87 94 99
1 55 59 48 37 6 2 8 40 35 24 51 72 45 63 80 88 93 95 101 110 113 111 109 109 108 106 106 104 99 92 85 78 74 70 65 64 62 58 56 54 53 56 58 57 58 58 57 59 56 52 61 75 85 94 99 103 108 111 112 112 109 107 107 107 108 109 108 106 105 106 109 110 111 109 102 102 107 104 93 86 83 80 85 93 102 105
55 65 65 57 50 34 26 37 49 49 49 69 88 84 75 68 78 94 101 106 109 111 113 113 112 110 108 104 97 92 88 84 78 73 66 60 57 55 51 50 50 50 52 53 52 52 50 47 50 50 45 47 54 60 67 73 83 95 106 114 117 117 118 119 124 131 134 135 132 130 128 124 122 131 136 127 117 111 98 89 88 76 63 68 79 84 95
83 68 61 63 61 55 52 52 54 60 68 76 87 86 79 78 90 98 102 106 109 110 111 112 111 111 111 107 100 95 92 87 79 72 66 59 53 48 44 43 43 44 49 49 47 48 48 43 40 42 46 49 55 62 58 50 51 51 53 68 83 92 104 114 126 137 145 150 148 142 140 135 134 134 120 100 99 94 74 58 61 55 40 48 55 47 74
98 65 57 64 66 64 64 65 64 66 71 78 85 87 86 90 96 98 100 104 107 108 109 111 112 112 110 106 102 98 93 87 80 72 66 58 49 43 40 39 40 41 42 45 45 45 46 44 40 37 39 41 50 72 80 75 80 77 64 63 65 64 71 81 84 87 89 98 110 120 127 130 134 128 105 88 101 138 132 115 98 73 49 47 58 57 36
91 94 89 79 72 68 66 68 72 74 76 82 87 91 95 98 99 100 101 102 101 101 102 106 109 110 108 103 100 95 87 82 75 67 60 50 42 38 37 37 39 41 42 44 46 44 42 43 41 38 39 39 41 52 70 83 95 98 96 97 93 87 85 82 78 73 68 68 71 71 74 85 96 110 120 130 170 195 185 179 173 154 125 99 122 115 52
100 112 110 96 81 72 66 68 76 82 86 90 91 93 97 99 100 101 103 103 102 100 100 103 104 101 97 94 93 87 81 74 64 53 47 39 33 34 35 33 33 37 41 43 43 41 38 36 36 36 38 41 41 44 55 72 84 88 88 86 85 86 86 83 75 61 50 51 57 52 42 35 35 42 52 25 334 343 11 202 213 193 183 207 226 190 100
104 112 109 98 88 80 75 77 82 87 91 93 93 92 94 97 98 98 98 99 98 96 95 97 96 91 87 85 83 79 74 68 55 41 33 29 28 29 31 30 29 34 41 42 42 40 35 31 30 29 32 43 49 47 53 69 77 77 70 59 55 61 68 82 83 65 50 50 58 60 55 33 14 18 34 32 8 352 341 333 321 267 240 262 268 221 164
93 95 95 92 93 97 95 91 89 90 94 95 94 94 95 95 96 97 96 96 96 94 93 94 95 94 90 84 77 72 68 58 46 36 29 25 23 24 27 27 25 29 35 37 39 39 33 29 28 23 24 38 49 51 54 62 73 78 68 50 42 44 43 71 90 71 55 55 58 59 65 58 31 11 8 12 19 22 16 11 14 9 354 348 345 333 249
97 95 95 96 99 104 109 108 101 95 96 97 97 100 102 101 101 101 99 97 98 97 97 99 101 100 95 86 78 73 63 47 37 31 25 21 21 25 26 23 23 28 28 27 31 33 27 26 31 30 26 28 39 53 55 50 55 75 83 79 72 61 49 50 65 65 56 56 58 54 55 59 60 47 10 357 2 14 23 26 27 26 25 28 33 39 36
97 97 98 98 99 102 108 111 107 99 96 97 99 103 105 106 108 108 105 105 104 103 106 109 107 107 106 93 80 70 47 27 20 14 6 9 17 23 19 16 20 24 21 20 23 24 21 22 28 32 25 19 28 49 56 52 49 53 69 92 107 105 86 61 48 53 56 53 52 54 51 50 54 56 54 35 10 3 9 16 19 20 20 20 26 37 40
95 98 100 98 97 99 101 101 101 100 97 98 102 104 105 107 108 104 102 105 107 112 121 125 121 121 118 101 88 72 28 14 29 38 14 2 7 9 5 8 15 17 18 17 6 1 13 25 28 29 23 14 16 25 36 51 54 46 45 51 53 87 105 87 58 51 61 54 48 52 53 52 52 48 48 54 46 25 13 13 12 10 6 6 12 18 15
95 96 99 97 93 92 92 94 98 100 98 98 101 102 103 108 106 97 93 96 97 102 116 122 122 125 120 109 108 79 20 18 45 43 15 357 357 357 353 357 5 8 12 8 353 357 16 27 25 24 20 14 14 17 21 40 49 43 46 52 41 44 79 80 62 52 52 45 45 60 58 51 50 48 45 45 44 44 43 34 28 20 5 356 357 360 357
92 91 94 96 94 94 95 96 96 96 95 96 98 98 100 103 101 93 89 89 90 95 105 111 115 124 119 110 123 25 2 356 8 6 358 356 357 352 347 350 357 3 7 360 356 6 19 22 18 13 11 11 14 17 22 34 44 44 48 54 49 41 44 49 49 46 39 28 34 81 81 65 45 37 41 45 43 42 43 40 39 41 25 357 346 351 354
90 90 92 96 99 101 101 98 95 93 91 89 90 93 95 93 91 89 85 85 90 99 106 109 118 134 132 98 355 357 2 357 354 352 352 359 359 352 348 346 348 360 6 356 355 5 9 9 10 4 3 8 10 12 23 33 43 52 51 51 60 58 39 47 57 46 21 5 28 71 77 68 49 33 40 45 45 44 44 43 40 36 32 20 1 1 359
94 97 99 104 107 106 102 99 97 96 93 90 86 82 77 77 83 87 84 83 86 91 98 110 125 146 160 164 7 12 360 354 351 341 338 348 354 355 353 339 326 336 353 344 343 353 358 360 3 357 357 6 7 12 29 37 41 53 53 53 61 23 12 72 95 85 35 357 23 53 63 58 45 45 49 47 48 48 42 44 47 43 38 34 23 11 4
102 100 101 108 111 106 101 99 96 93 91 87 81 76 68 61 66 80 89 89 76 65 72 87 230 195 192 222 355 356 337 342 345 336 330 337 344 348 351 340 318 310 328 329 324 331 342 344 339 337 344 1 8 15 32 40 48 58 54 41 16 358 356 41 107 108 82 41 36 46 60 61 50 48 44 41 47 50 41 38 42 39 34 31 19 2 4
110 108 107 109 112 108 102 97 93 93 92 81 72 71 63 47 45 62 81 79 63 48 24 326 262 206 206 242 297 289 303 322 323 319 327 343 346 345 344 339 319 301 327 329 306 304 336 346 314 309 320 350 6 18 32 46 54 51 35 36 16 353 352 32 91 90 60 58 66 67 68 62 49 43 44 41 41 41 35 31 32 27 24 26 10 333 320
119 120 118 116 116 116 111 102 95 95 94 79 62 55 49 44 43 49 51 38 25 356 325 310 236 202 211 228 255 282 310 323 329 342 354 342 339 339 338 333 317 269 262 311 295 281 289 281 275 289 320 339 346 2 22 47 54 14 346 12 35 1 3 45 77 78 57 43 55 63 68 65 55 53 56 51 44 42 42 37 32 26 23 25 3 329 316
119 119 115 107 101 104 105 103 100 96 89 80 66 51 42 36 30 39 58 35 349 341 329 303 206 199 213 224 259 288 302 314 325 334 329 322 327 336 341 342 336 299 265 295 300 284 279 265 258 261 275 286 303 329 352 26 35 336 322 355 37 33 25 44 64 74 77 43 38 49 58 62 59 63 66 57 48 48 48 44 42 34 25 24 8 343 333
122 118 111 100 92 95 97 95 89 83 77 79 75 49 31 27 21 44 70 10 336 347 352 243 180 191 218 241 271 283 287 297 309 311 307 311 325 339 349 357 0 345 321 314 292 274 269 261 254 247 242 261 291 298 300 341 9 312 307 15 41 38 68 97 78 82 94 82 54 63 92 103 79 74 73 66 55 49 47 46 46 39 27 26 23 6 359
126 124 118 107 99 97 96 90 82 70 60 64 61 47 53 58 41 37 43 23 10 52 72 111 147 177 253 271 272 277 285 299 317 321 316 315 322 335 350 11 21 10 3 360 334 306 281 266 267 264 246 253 285 279 282 288 284 291 312 49 83 52 47 93 89 75 86 94 99 94 76 63 60 67 72 72 65 61 56 49 45 42 34 30 30 25 23
133 132 123 113 109 106 99 90 80 71 67 65 62 67 76 65 39 36 47 49 65 80 97 125 138 222 257 254 272 284 288 304 325 324 317 310 308 321 341 8 18 16 17 4 332 325 301 267 271 275 262 249 264 273 283 284 234 142 356 33 101 141 185 134 118 98 111 136 168 40 44 45 49 58 64 66 66 63 65 60 49 42 39 36 35 34 34
141 138 132 128 126 117 104 92 78 73 75 75 78 81 69 51 60 84 85 89 96 97 114 141 161 287 245 269 302 296 252 258 310 320 314 299 296 311 324 337 352 357 346 305 308 316 285 250 254 256 241 252 259 274 286 284 162 130 92 13 141 169 190 172 178 195 158 155 194 64 60 72 119 121 81 70 61 32 46 70 68 52 42 41 40 41 43
147 147 146 145 144 132 119 114 99 85 81 75 83 89 69 60 97 119 115 117 132 137 123 127 187 265 283 313 316 291 235 263 310 325 322 287 286 308 311 308 323 331 314 302 310 313 272 245 234 218 229 251 250 273 292 287 128 128 146 211 162 176 201 191 191 201 187 187 194 184 166 164 178 152 112 106 214 351 19 40 57 63 56 48 45 47 54
160 162 162 166 172 170 159 156 143 126 126 84 76 108 125 133 152 171 186 166 169 185 202 193 258 284 300 306 306 307 314 321 326 332 331 298 308 326 316 292 294 330 333 328 317 292 270 248 210 198 228 243 213 249 311 13 115 125 185 209 169 181 213 209 203 204 209 216 207 186 176 183 177 154 141 141 307 34 37 41 48 54 61 61 55 55 58
172 174 179 187 193 195 197 201 200 197 202 226 227 204 212 226 212 212 217 203 186 191 218 243 262 290 311 305 292 292 302 307 310 318 318 313 318 325 315 285 286 326 337 338 327 310 302 256 191 193 220 230 191 190 293 341 93 115 360 243 191 197 211 213 214 216 215 221 221 207 206 218 200 175 176 199 209 75 73 75 55 33 41 58 64 69 72
181 185 196 205 209 215 219 219 223 229 235 240 239 235 233 233 224 218 222 222 217 217 230 246 262 284 299 297 280 274 279 275 271 280 288 285 292 310 326 352 336 322 329 338 339 331 324 272 196 196 203 212 205 195 219 278 233 201 250 249 227 227 229 225 222 223 223 222 225 224 224 226 229 222 209 196 189 180 157 125 81 37 24 16 16 28 85
181 188 198 205 210 214 216 219 228 238 246 248 244 241 238 236 232 231 231 232 233 235 237 246 262 278 280 265 254 256 266 269 263 264 270 270 263 285 338 12 326 302 316 332 339 319 271 239 231 226 219 215 217 226 263 274 237 238 257 258 241 239 242 235 229 231 231 226 227 230 230 231 237 238 229 208 197 191 188 186 190 212 290 321 335 325 298
182 191 197 203 208 211 219 229 238 244 252 256 250 243 240 237 235 235 236 237 239 242 243 246 254 259 255 255 260 262 264 272 273 271 281 281 243 208 224 347 339 332 342 350 337 259 251 247 245 255 265 255 237 240 264 265 237 237 255 263 257 252 248 242 237 238 236 231 231 234 234 232 235 239 237 230 220 210 202 198 193 198 226 260 268 271 281
186 193 198 203 210 218 228 240 246 249 254 255 252 248 246 243 240 240 242 242 243 245 245 246 251 255 253 255 259 259 263 276 280 276 287 299 278 179 159 360 351 360 8 15 17 267 268 264 256 263 277 278 264 255 256 254 246 246 249 251 255 257 257 256 257 256 251 242 236 235 235 235 236 239 240 237 227 216 214 208 198 196 218 241 253 261 271
192 193 198 206 217 230 240 246 250 254 256 256 254 253 252 250 247 246 246 244 245 248 249 249 251 253 253 254 257 259 260 265 266 260 266 284 277 195 177 311 310 311 342 8 26 339 284 287 280 273 273 273 267 260 252 244 243 247 247 249 254 254 251 255 263 267 264 257 249 242 238 235 234 239 242 237 230 223 221 214 202 194 217 235 230 218 212
198 199 207 216 228 242 249 250 251 254 254 254 256 256 256 257 256 251 249 249 249 250 250 249 249 250 252 252 253 256 258 261 262 259 255 255 251 246 258 278 289 292 306 331 349 326 311 327 334 315 290 275 266 257 245 240 244 246 245 247 252 252 249 254 261 262 259 262 268 268 251 234 230 238 243 239 236 234 230 222 206 197 224 246 246 232 216
201 209 222 231 239 249 253 250 253 255 254 254 257 260 262 265 262 254 249 250 250 248 250 251 250 249 250 250 249 251 254 259 263 261 254 246 243 244 249 256 267 281 291 296 298 301 313 332 344 342 330 306 276 252 237 236 244 249 248 247 249 249 249 254 262 263 256 257 268 276 266 246 241 246 245 242 241 240 240 240 232 216 225 244 254 251 245
205 216 227 227 228 241 247 244 246 253 254 254 258 263 267 268 266 259 253 251 250 249 251 251 248 246 246 247 247 247 248 249 252 255 254 252 254 258 260 262 268 276 281 281 277 278 288 305 321 333 340 338 312 262 239 240 247 251 250 250 250 247 242 244 251 251 243 240 252 263 259 252 252 253 248 246 248 246 244 247 245 235 231 231 229 235 245
207 216 225 226 227 240 252 251 251 258 259 256 259 266 268 267 266 265 261 254 251 250 249 246 243 241 242 241 242 244 246 246 247 251 255 258 261 263 261 260 264 271 276 270 256 256 269 283 296 307 321 334 338 253 225 240 253 257 255 255 255 249 242 243 247 245 237 234 242 254 254 249 250 249 244 242 242 240 239 240 240 241 242 237 226 227 242
210 216 225 233 239 249 257 261 264 267 267 264 263 265 265 266 269 271 266 258 253 251 249 245 241 239 241 242 242 243 244 244 244 248 256 258 257 257 258 258 262 272 278 272 252 249 263 277 284 287 302 321 329 264 225 236 248 252 252 256 258 250 243 245 253 256 252 247 248 251 248 246 249 252 250 246 244 241 240 239 240 246 252 252 242 236 239
218 223 230 240 250 254 259 263 266 266 266 267 266 265 265 269 273 273 269 265 261 255 250 247 244 240 242 246 243 240 242 243 243 248 255 251 245 250 263 267 267 272 278 271 248 237 248 265 275 283 293 304 298 256 243 251 257 253 247 248 252 251 248 247 250 255 257 256 255 253 249 246 247 249 250 251 252 251 249 248 248 249 253 256 254 249 240